AUL509 ULLI-UWGG

Flight info

Callsign AUL509
Flight time 1h 32m
Altitude 37000
Route N0460F370 SUGIN T873 NIRGI T73 DESUD P164 GAKLU N869 RANTO T540 POGAS T747 OLATU T784 ADMUL L94 USTOK
Aircraft B738/M-Q/L

Departure

Time 2026-04-26 08:41
Airport Pulkovo Airport (ULLI)

Arrival

Time 2026-04-26 10:13
Airport Nizhny Novgorod / Strigino International Airport (UWGG)
Time Latitude Longitude Altitude Speed Heading
2026-04-26 08:19 59.79855 30.26324 86 ft 0 kts 285°
2026-04-26 08:35 59.79856 30.26320 86 ft 1 kts 285°
2026-04-26 08:35 59.79868 30.26241 86 ft 9 kts 288°
2026-04-26 08:35 59.79935 30.26220 86 ft 11 kts 14°
2026-04-26 08:35 59.80027 30.26271 86 ft 16 kts 15°
2026-04-26 08:36 59.80154 30.26348 86 ft 21 kts 15°
2026-04-26 08:36 59.80313 30.26436 81 ft 21 kts 13°
2026-04-26 08:36 59.80429 30.26494 77 ft 14 kts 46°
2026-04-26 08:36 59.80425 30.26683 77 ft 15 kts 105°
2026-04-26 08:37 59.80392 30.26908 78 ft 18 kts 108°
2026-04-26 08:37 59.80350 30.27193 75 ft 24 kts 105°
2026-04-26 08:37 59.80300 30.27531 76 ft 26 kts 106°
2026-04-26 08:37 59.80245 30.27902 74 ft 29 kts 106°
2026-04-26 08:38 59.80184 30.28304 72 ft 31 kts 104°
2026-04-26 08:38 59.80123 30.28721 72 ft 32 kts 106°
2026-04-26 08:38 59.80056 30.29157 71 ft 32 kts 105°
2026-04-26 08:38 59.79998 30.29554 72 ft 16 kts 106°
2026-04-26 08:39 59.79967 30.29764 72 ft 15 kts 106°
2026-04-26 08:39 59.79940 30.29960 74 ft 13 kts 96°
2026-04-26 08:39 59.79974 30.30091 73 ft 10 kts 47°
2026-04-26 08:39 59.80029 30.30210 72 ft 12 kts 47°
2026-04-26 08:40 59.80107 30.30265 72 ft 13 kts 328°
2026-04-26 08:40 59.80135 30.30170 73 ft 0 kts 287°
2026-04-26 08:40 59.80192 30.29789 69 ft 65 kts 287°
2026-04-26 08:40 59.80383 30.28504 68 ft 128 kts 286°
2026-04-26 08:41 59.80681 30.26536 254 ft 155 kts 287°
2026-04-26 08:41 59.80957 30.24566 1014 ft 146 kts 289°
2026-04-26 08:41 59.81242 30.22610 1554 ft 152 kts 292°
2026-04-26 08:41 59.81539 30.20559 1990 ft 160 kts 290°
2026-04-26 08:42 59.81816 30.18383 2443 ft 167 kts 291°
2026-04-26 08:42 59.82207 30.16182 2836 ft 176 kts 299°
2026-04-26 08:42 59.82684 30.13857 3249 ft 189 kts 295°
2026-04-26 08:42 59.83019 30.11192 3514 ft 210 kts 288°
2026-04-26 08:43 59.83345 30.08236 3855 ft 225 kts 292°
2026-04-26 08:43 59.83775 30.05140 4298 ft 237 kts 287°
2026-04-26 08:43 59.83770 30.01867 4965 ft 248 kts 258°
2026-04-26 08:43 59.82928 29.98897 5653 ft 254 kts 233°
2026-04-26 08:44 59.81690 29.96288 6129 ft 266 kts 221°
2026-04-26 08:44 59.80081 29.94534 6741 ft 268 kts 194°
2026-04-26 08:44 59.78316 29.93798 7585 ft 260 kts 192°
2026-04-26 08:44 59.76505 29.93304 7982 ft 269 kts 175°
2026-04-26 08:45 59.74725 29.94456 8464 ft 268 kts 143°
2026-04-26 08:45 59.73333 29.96684 9180 ft 263 kts 135°
2026-04-26 08:45 59.72069 29.99424 9353 ft 277 kts 116°
2026-04-26 08:45 59.71461 30.03008 9794 ft 281 kts 100°
2026-04-26 08:46 59.70978 30.06876 10120 ft 295 kts 103°
2026-04-26 08:46 59.70382 30.10897 10415 ft 310 kts 105°
2026-04-26 08:46 59.69800 30.15017 10856 ft 317 kts 100°
2026-04-26 08:46 59.69494 30.19332 11459 ft 318 kts 91°
2026-04-26 08:47 59.69445 30.23680 12219 ft 316 kts 89°
2026-04-26 08:47 59.69423 30.28010 12924 ft 316 kts 88°
2026-04-26 08:47 59.69368 30.32383 13453 ft 323 kts 90°
2026-04-26 08:47 59.69098 30.36793 14106 ft 327 kts 98°
2026-04-26 08:48 59.68619 30.41176 14795 ft 329 kts 99°
2026-04-26 08:48 59.68126 30.45620 15452 ft 331 kts 99°
2026-04-26 08:48 59.67647 30.50035 16089 ft 334 kts 99°
2026-04-26 08:48 59.67158 30.54557 16732 ft 336 kts 99°
2026-04-26 08:49 59.66672 30.59074 17336 ft 339 kts 98°
2026-04-26 08:49 59.66196 30.63644 17934 ft 341 kts 98°
2026-04-26 08:49 59.65709 30.68190 18526 ft 343 kts 99°
2026-04-26 08:49 59.65252 30.72819 19116 ft 345 kts 97°
2026-04-26 08:50 59.64865 30.77488 19680 ft 346 kts 96°
2026-04-26 08:50 59.64491 30.82165 20213 ft 349 kts 96°
2026-04-26 08:50 59.64108 30.86902 20745 ft 351 kts 97°
2026-04-26 08:50 59.63720 30.91641 21246 ft 354 kts 97°
2026-04-26 08:51 59.62920 31.01237 22254 ft 358 kts 97°
2026-04-26 08:51 59.62514 31.06062 22731 ft 360 kts 98°
2026-04-26 08:51 59.62102 31.10931 23229 ft 361 kts 98°
2026-04-26 08:52 59.61682 31.15863 23677 ft 364 kts 98°
2026-04-26 08:52 59.61259 31.20809 24107 ft 366 kts 98°
2026-04-26 08:52 59.60833 31.25767 24527 ft 369 kts 98°
2026-04-26 08:52 59.60403 31.30748 24881 ft 371 kts 98°
2026-04-26 08:53 59.59965 31.35782 25175 ft 374 kts 99°
2026-04-26 08:53 59.59523 31.40855 25465 ft 378 kts 99°
2026-04-26 08:53 59.59079 31.45928 25757 ft 381 kts 99°
2026-04-26 08:53 59.58624 31.51086 26057 ft 383 kts 99°
2026-04-26 08:54 59.58166 31.56271 26325 ft 386 kts 99°
2026-04-26 08:54 59.57702 31.61495 26605 ft 389 kts 99°
2026-04-26 08:54 59.57235 31.66716 26884 ft 391 kts 101°
2026-04-26 08:54 59.56762 31.71990 27173 ft 393 kts 101°
2026-04-26 08:55 59.56278 31.77358 27426 ft 396 kts 101°
2026-04-26 08:55 59.55797 31.82664 27681 ft 399 kts 101°
2026-04-26 08:55 59.55304 31.88080 27908 ft 402 kts 101°
2026-04-26 08:55 59.54810 31.93480 28166 ft 405 kts 101°
2026-04-26 08:56 59.54293 31.99032 28407 ft 407 kts 103°
2026-04-26 08:56 59.53875 32.02619 28535 ft 409 kts 106°
2026-04-26 08:56 59.52557 32.09614 28860 ft 410 kts 118°
2026-04-26 08:56 59.51047 32.14354 29088 ft 411 kts 127°
2026-04-26 08:57 59.49217 32.18716 29316 ft 412 kts 134°
2026-04-26 08:57 59.47236 32.22753 29541 ft 414 kts 136°
2026-04-26 08:57 59.45176 32.26782 29783 ft 416 kts 136°
2026-04-26 08:57 59.43119 32.30771 30015 ft 418 kts 136°
2026-04-26 08:58 59.41049 32.34779 30246 ft 420 kts 136°
2026-04-26 08:58 59.38962 32.38820 30431 ft 423 kts 136°
2026-04-26 08:58 59.36879 32.42851 30648 ft 425 kts 136°
2026-04-26 08:58 59.34783 32.46904 30864 ft 426 kts 136°
2026-04-26 08:59 59.32643 32.51035 31059 ft 429 kts 136°
2026-04-26 08:59 59.30521 32.55124 31252 ft 431 kts 136°
2026-04-26 08:59 59.28390 32.59226 31447 ft 433 kts 137°
2026-04-26 08:59 59.26240 32.63355 31631 ft 435 kts 136°
2026-04-26 09:00 59.24044 32.67569 31829 ft 437 kts 137°
2026-04-26 09:00 59.21891 32.71691 32002 ft 439 kts 137°
2026-04-26 09:00 59.19721 32.75838 32169 ft 441 kts 137°
2026-04-26 09:00 59.17545 32.79988 32348 ft 443 kts 137°
2026-04-26 09:01 59.15300 32.84263 32494 ft 445 kts 137°
2026-04-26 09:01 59.13081 32.88482 32683 ft 447 kts 138°
2026-04-26 09:01 59.10858 32.92698 32831 ft 449 kts 138°
2026-04-26 09:01 59.08631 32.96914 33024 ft 450 kts 138°
2026-04-26 09:02 59.06393 33.01144 33207 ft 452 kts 138°
2026-04-26 09:02 59.04123 33.05402 33389 ft 454 kts 138°
2026-04-26 09:02 59.01870 33.09665 33582 ft 456 kts 138°
2026-04-26 09:02 58.99618 33.13911 33756 ft 458 kts 138°
2026-04-26 09:03 58.97295 33.18267 34047 ft 457 kts 138°
2026-04-26 09:03 58.95034 33.22496 34317 ft 456 kts 138°
2026-04-26 09:03 58.92755 33.26750 34528 ft 456 kts 138°
2026-04-26 09:03 58.90482 33.30983 34765 ft 456 kts 138°
2026-04-26 09:04 58.88194 33.35240 34987 ft 456 kts 138°
2026-04-26 09:04 58.85911 33.39478 35203 ft 456 kts 138°
2026-04-26 09:04 58.83664 33.43642 35387 ft 457 kts 138°
2026-04-26 09:04 58.81349 33.47921 35578 ft 457 kts 138°
2026-04-26 09:05 58.79065 33.52140 35772 ft 457 kts 138°
2026-04-26 09:05 58.76770 33.56368 35937 ft 458 kts 138°
2026-04-26 09:05 58.74475 33.60590 36129 ft 458 kts 138°
2026-04-26 09:05 58.72184 33.64794 36287 ft 458 kts 138°
2026-04-26 09:06 58.69865 33.69043 36334 ft 460 kts 139°
2026-04-26 09:06 58.65257 33.77463 36346 ft 459 kts 139°
2026-04-26 09:07 58.60621 33.85900 36347 ft 457 kts 139°
2026-04-26 09:07 58.56008 33.94261 36340 ft 458 kts 139°
2026-04-26 09:08 58.51380 34.02620 36338 ft 457 kts 139°
2026-04-26 09:08 58.46786 34.10887 36347 ft 458 kts 139°
2026-04-26 09:09 58.42115 34.19257 36349 ft 458 kts 139°
2026-04-26 09:09 58.37482 34.27531 36358 ft 458 kts 139°
2026-04-26 09:10 58.32836 34.35794 36354 ft 457 kts 139°
2026-04-26 09:10 58.28196 34.44016 36363 ft 457 kts 139°
2026-04-26 09:11 58.23523 34.52265 36370 ft 458 kts 139°
2026-04-26 09:11 58.18852 34.60399 36373 ft 457 kts 140°
2026-04-26 09:12 58.13980 34.68167 36381 ft 457 kts 143°
2026-04-26 09:12 58.09114 34.75771 36380 ft 455 kts 143°
2026-04-26 09:13 58.04259 34.83370 36382 ft 455 kts 143°
2026-04-26 09:13 57.99408 34.90960 36381 ft 456 kts 143°
2026-04-26 09:14 57.94517 34.98596 36373 ft 456 kts 143°
2026-04-26 09:14 57.89648 35.06176 36379 ft 456 kts 143°
2026-04-26 09:15 57.84760 35.13765 36378 ft 456 kts 143°
2026-04-26 09:15 57.79870 35.21334 36379 ft 455 kts 143°
2026-04-26 09:16 57.74985 35.28865 36379 ft 455 kts 143°
2026-04-26 09:16 57.70119 35.36342 36397 ft 454 kts 143°
2026-04-26 09:17 57.65235 35.43816 36394 ft 454 kts 143°
2026-04-26 09:17 57.60794 35.52149 36398 ft 459 kts 128°
2026-04-26 09:17 57.59198 35.57226 36403 ft 464 kts 117°
2026-04-26 09:18 57.57931 35.62844 36396 ft 467 kts 114°
2026-04-26 09:18 57.55696 35.74148 36391 ft 465 kts 113°
2026-04-26 09:19 57.53482 35.85505 36381 ft 465 kts 113°
2026-04-26 09:19 57.51264 35.96720 36381 ft 466 kts 114°
2026-04-26 09:20 57.49017 36.07967 36380 ft 465 kts 114°
2026-04-26 09:20 57.46762 36.19217 36378 ft 464 kts 113°
2026-04-26 09:21 57.44506 36.30445 36382 ft 464 kts 114°
2026-04-26 09:21 57.42250 36.41594 36376 ft 465 kts 114°
2026-04-26 09:22 57.39983 36.52729 36392 ft 465 kts 114°
2026-04-26 09:22 57.37680 36.63974 36390 ft 465 kts 114°
2026-04-26 09:23 57.35400 36.75045 36394 ft 465 kts 114°
2026-04-26 09:23 57.33080 36.86244 36389 ft 465 kts 115°
2026-04-26 09:24 57.30762 36.97380 36392 ft 465 kts 114°
2026-04-26 09:24 57.28439 37.08474 36395 ft 464 kts 115°
2026-04-26 09:25 57.26099 37.19576 36397 ft 464 kts 115°
2026-04-26 09:25 57.23745 37.30687 36393 ft 463 kts 115°
2026-04-26 09:26 57.21402 37.41695 36404 ft 464 kts 115°
2026-04-26 09:26 57.19079 37.52720 36403 ft 465 kts 111°
2026-04-26 09:27 57.17930 37.64539 36403 ft 474 kts 91°
2026-04-26 09:27 57.19091 37.76540 36400 ft 482 kts 75°
2026-04-26 09:28 57.21359 37.88074 36398 ft 482 kts 71°
2026-04-26 09:28 57.23803 37.99617 36398 ft 483 kts 71°
2026-04-26 09:29 57.26206 38.11180 36401 ft 482 kts 71°
2026-04-26 09:29 57.28566 38.22729 36400 ft 484 kts 71°
2026-04-26 09:30 57.30916 38.34361 36393 ft 485 kts 71°
2026-04-26 09:30 57.33239 38.45987 36391 ft 484 kts 71°
2026-04-26 09:31 57.35579 38.57797 36392 ft 485 kts 71°
2026-04-26 09:31 57.37878 38.69461 36409 ft 484 kts 72°
2026-04-26 09:32 57.40165 38.81142 36406 ft 483 kts 72°
2026-04-26 09:32 57.42432 38.92799 36405 ft 484 kts 72°
2026-04-26 09:33 57.44699 39.04518 36404 ft 486 kts 72°
2026-04-26 09:33 57.46876 39.16347 36410 ft 484 kts 77°
2026-04-26 09:34 57.47565 39.28539 36412 ft 473 kts 100°
2026-04-26 09:34 57.46152 39.40339 36417 ft 469 kts 110°
2026-04-26 09:35 57.44280 39.51887 36419 ft 468 kts 111°
2026-04-26 09:35 57.42381 39.63388 36419 ft 467 kts 111°
2026-04-26 09:36 57.40477 39.74893 36425 ft 466 kts 112°
2026-04-26 09:36 57.38582 39.86299 36431 ft 469 kts 112°
2026-04-26 09:37 57.36597 39.97715 36423 ft 467 kts 116°
2026-04-26 09:37 57.33408 40.07906 36431 ft 450 kts 138°
2026-04-26 09:38 57.28760 40.15288 36425 ft 439 kts 153°
2026-04-26 09:38 57.26118 40.17749 36433 ft 429 kts 164°
2026-04-26 09:38 57.23309 40.19515 36435 ft 427 kts 167°
2026-04-26 09:39 57.17653 40.22616 36430 ft 427 kts 168°
2026-04-26 09:39 57.11995 40.25663 36438 ft 426 kts 168°
2026-04-26 09:40 57.06294 40.28737 36448 ft 427 kts 168°
2026-04-26 09:40 57.00786 40.32650 36446 ft 434 kts 156°
2026-04-26 09:40 56.98307 40.35830 36453 ft 443 kts 144°
2026-04-26 09:41 56.96094 40.39755 36447 ft 448 kts 139°
2026-04-26 09:41 56.91930 40.48265 36449 ft 450 kts 137°
2026-04-26 09:42 56.87804 40.56913 36436 ft 451 kts 136°
2026-04-26 09:42 56.83677 40.65506 36447 ft 450 kts 137°
2026-04-26 09:43 56.79543 40.74063 36452 ft 448 kts 138°
2026-04-26 09:43 56.75398 40.82594 36466 ft 451 kts 138°
2026-04-26 09:44 56.71240 40.91122 36470 ft 451 kts 138°
2026-04-26 09:44 56.67099 40.99580 36469 ft 450 kts 138°
2026-04-26 09:45 56.62913 41.08100 36461 ft 450 kts 138°
2026-04-26 09:45 56.58940 41.16925 36471 ft 453 kts 133°
2026-04-26 09:46 56.55164 41.26179 36481 ft 456 kts 133°
2026-04-26 09:46 56.51389 41.35389 36258 ft 458 kts 133°
2026-04-26 09:46 56.49492 41.39974 35833 ft 459 kts 133°
2026-04-26 09:47 56.47556 41.44629 35427 ft 464 kts 134°
2026-04-26 09:47 56.45598 41.49319 35011 ft 466 kts 134°
2026-04-26 09:47 56.43652 41.53974 34594 ft 467 kts 134°
2026-04-26 09:47 56.41720 41.58586 34153 ft 466 kts 134°
2026-04-26 09:48 56.39766 41.63248 33679 ft 461 kts 134°
2026-04-26 09:48 56.37827 41.67864 33163 ft 456 kts 135°
2026-04-26 09:48 56.35934 41.72364 32567 ft 451 kts 135°
2026-04-26 09:48 56.34065 41.76790 31890 ft 445 kts 135°
2026-04-26 09:49 56.32201 41.81198 31201 ft 438 kts 136°
2026-04-26 09:49 56.30384 41.85485 30491 ft 432 kts 135°
2026-04-26 09:49 56.28582 41.89723 29764 ft 427 kts 135°
2026-04-26 09:49 56.26788 41.93935 29033 ft 423 kts 135°
2026-04-26 09:50 56.24997 41.98125 28300 ft 420 kts 135°
2026-04-26 09:50 56.23220 42.02277 27575 ft 417 kts 135°
2026-04-26 09:50 56.21545 42.06475 26884 ft 423 kts 129°
2026-04-26 09:50 56.20155 42.11173 26150 ft 433 kts 118°
2026-04-26 09:51 56.19313 42.16422 25428 ft 443 kts 104°
2026-04-26 09:51 56.18894 42.21926 24705 ft 446 kts 100°
2026-04-26 09:51 56.18595 42.27379 23994 ft 447 kts 99°
2026-04-26 09:51 56.18304 42.32967 23293 ft 448 kts 98°
2026-04-26 09:52 56.18016 42.38444 22602 ft 447 kts 98°
2026-04-26 09:52 56.17417 42.49491 21188 ft 446 kts 98°
2026-04-26 09:52 56.17114 42.54964 20475 ft 439 kts 98°
2026-04-26 09:53 56.16813 42.60354 19770 ft 429 kts 98°
2026-04-26 09:53 56.16519 42.65550 19082 ft 419 kts 99°
2026-04-26 09:53 56.16226 42.70698 18438 ft 409 kts 98°
2026-04-26 09:53 56.15944 42.75633 17800 ft 398 kts 99°
2026-04-26 09:54 56.15657 42.80484 17169 ft 389 kts 99°
2026-04-26 09:54 56.15375 42.85282 16521 ft 381 kts 99°
2026-04-26 09:54 56.15103 42.89903 15889 ft 374 kts 99°
2026-04-26 09:54 56.14833 42.94461 15258 ft 367 kts 99°
2026-04-26 09:55 56.14562 42.98994 14620 ft 361 kts 99°
2026-04-26 09:55 56.14297 43.03392 13980 ft 355 kts 99°
2026-04-26 09:55 56.14034 43.07729 13350 ft 350 kts 99°
2026-04-26 09:55 56.13775 43.11985 12715 ft 345 kts 99°
2026-04-26 09:56 56.13512 43.16264 12071 ft 341 kts 99°
2026-04-26 09:56 56.13294 43.20419 11431 ft 339 kts 94°
2026-04-26 09:56 56.13548 43.24601 10798 ft 339 kts 78°
2026-04-26 09:56 56.14191 43.28622 10167 ft 336 kts 74°
2026-04-26 09:57 56.14885 43.32542 9535 ft 333 kts 74°
2026-04-26 09:57 56.15570 43.36481 8890 ft 330 kts 75°
2026-04-26 09:57 56.16225 43.40350 8249 ft 327 kts 75°
2026-04-26 09:57 56.16871 43.44225 7766 ft 322 kts 75°
2026-04-26 09:58 56.17503 43.48048 7433 ft 318 kts 75°
2026-04-26 09:58 56.18122 43.51821 7213 ft 315 kts 75°
2026-04-26 09:58 56.18737 43.55577 6956 ft 316 kts 76°
2026-04-26 09:58 56.19352 43.59354 6700 ft 317 kts 76°
2026-04-26 09:59 56.19964 43.63111 6445 ft 313 kts 76°
2026-04-26 09:59 56.20368 43.65594 6254 ft 307 kts 77°
2026-04-26 09:59 56.21142 43.70353 5924 ft 290 kts 77°
2026-04-26 09:59 56.21700 43.73801 5684 ft 285 kts 77°
2026-04-26 10:00 56.22248 43.77184 5475 ft 279 kts 76°
2026-04-26 10:00 56.22875 43.80451 5297 ft 276 kts 72°
2026-04-26 10:00 56.23577 43.83615 5124 ft 276 kts 72°
2026-04-26 10:00 56.24289 43.86809 4910 ft 274 kts 72°
2026-04-26 10:01 56.24977 43.89957 4682 ft 269 kts 72°
2026-04-26 10:01 56.25652 43.93086 4449 ft 265 kts 73°
2026-04-26 10:01 56.26311 43.96147 4221 ft 261 kts 73°
2026-04-26 10:01 56.27028 43.99073 3997 ft 260 kts 62°
2026-04-26 10:02 56.28239 44.01472 3776 ft 262 kts 36°
2026-04-26 10:02 56.29898 44.02789 3559 ft 260 kts 14°
2026-04-26 10:02 56.31684 44.03050 3330 ft 257 kts 351°
2026-04-26 10:02 56.33335 44.02059 3102 ft 249 kts 325°
2026-04-26 10:03 56.34652 44.00152 2874 ft 242 kts 307°
2026-04-26 10:03 56.35656 43.97798 2649 ft 237 kts 300°
2026-04-26 10:03 56.36594 43.95368 2448 ft 231 kts 300°
2026-04-26 10:03 56.37501 43.93021 2282 ft 224 kts 300°
2026-04-26 10:04 56.38314 43.90783 2274 ft 203 kts 290°
2026-04-26 10:04 56.38585 43.88487 2262 ft 175 kts 257°
2026-04-26 10:04 56.38335 43.86451 2295 ft 161 kts 242°
2026-04-26 10:04 56.37764 43.84809 2262 ft 153 kts 223°
2026-04-26 10:05 56.37252 43.83107 2251 ft 162 kts 255°
2026-04-26 10:05 56.37523 43.81145 2303 ft 169 kts 301°
2026-04-26 10:05 56.38476 43.79769 2272 ft 179 kts 327°
2026-04-26 10:05 56.39612 43.78901 2262 ft 180 kts 342°
2026-04-26 10:06 56.40829 43.78331 2268 ft 180 kts 338°
2026-04-26 10:06 56.41923 43.77282 2241 ft 176 kts 319°
2026-04-26 10:06 56.42904 43.75994 2117 ft 182 kts 334°
2026-04-26 10:06 56.44138 43.75927 1855 ft 179 kts 31°
2026-04-26 10:07 56.44846 43.77481 1572 ft 156 kts 88°
2026-04-26 10:07 56.44596 43.79204 1358 ft 138 kts 138°
2026-04-26 10:07 56.43839 43.80194 1312 ft 135 kts 152°
2026-04-26 10:07 56.43000 43.80955 1407 ft 135 kts 160°
2026-04-26 10:08 56.42124 43.81547 1538 ft 135 kts 162°
2026-04-26 10:08 56.41231 43.82069 1619 ft 136 kts 165°
2026-04-26 10:08 56.40334 43.82568 1655 ft 135 kts 166°
2026-04-26 10:08 56.39440 43.82998 1728 ft 132 kts 168°
2026-04-26 10:09 56.38524 43.83210 1787 ft 136 kts 182°
2026-04-26 10:09 56.37595 43.83069 1805 ft 132 kts 183°
2026-04-26 10:09 56.36657 43.82951 1778 ft 132 kts 183°
2026-04-26 10:09 56.35730 43.82810 1812 ft 135 kts 183°
2026-04-26 10:10 56.34806 43.82607 1794 ft 135 kts 184°
2026-04-26 10:10 56.33878 43.82470 1827 ft 135 kts 186°
2026-04-26 10:10 56.32956 43.82193 1799 ft 137 kts 188°
2026-04-26 10:10 56.32024 43.81878 1751 ft 134 kts 189°
2026-04-26 10:11 56.31128 43.81533 1653 ft 134 kts 189°
2026-04-26 10:11 56.30196 43.81196 1513 ft 139 kts 189°
2026-04-26 10:11 56.29242 43.80855 1262 ft 139 kts 189°
2026-04-26 10:11 56.28301 43.80512 1092 ft 137 kts 190°
2026-04-26 10:12 56.27365 43.80177 909 ft 138 kts 189°
2026-04-26 10:12 56.26413 43.79828 741 ft 142 kts 189°
2026-04-26 10:12 56.25478 43.79505 535 ft 140 kts 189°
2026-04-26 10:12 56.24526 43.79154 365 ft 141 kts 191°
2026-04-26 10:13 56.23603 43.78796 249 ft 126 kts 190°
2026-04-26 10:13 56.23000 43.78581 250 ft 38 kts 191°
2026-04-26 10:13 56.22723 43.78479 249 ft 47 kts 191°
2026-04-26 10:13 56.22368 43.78352 248 ft 52 kts 191°
2026-04-26 10:14 56.22098 43.78255 250 ft 28 kts 191°
2026-04-26 10:14 56.21961 43.78228 250 ft 11 kts 144°
2026-04-26 10:14 56.21941 43.78316 251 ft 5 kts 104°
2026-04-26 10:14 56.21934 43.78367 252 ft 4 kts 104°
2026-04-26 10:15 56.21923 43.78468 252 ft 11 kts 101°
2026-04-26 10:15 56.21913 43.78615 252 ft 11 kts 83°
2026-04-26 10:15 56.21927 43.78730 253 ft 7 kts 91°
2026-04-26 10:15 56.21921 43.78801 254 ft 3 kts 100°
2026-04-26 10:16 56.21920 43.78814 255 ft 0 kts 100°